Location: Atherton
(17.2661°S, 145.4859°E)
Time: 06:23:33
(UTC+10:00)

Vanguard 2 - Visible Passes

Search period start: 18 June 2025 00:00
Search period end: 28 June 2025 00:00
Orbit: 552 x 2900 km, 32.9° (Epoch: 17 June)

Date Brightness Start Highest point End Pass type
(mag) Time Alt. Az. Time Alt. Az. Time Alt. Az.
18 Jun 10.8 02:41:51 36° SE 02:41:51 36° SE 02:53:09 10° ESE visible
18 Jun 10.4 04:42:49 35° SW 04:51:26 64° SSE 05:08:52 10° ENE visible
18 Jun 9.7 20:13:42 10° NNW 20:14:40 15° N 20:14:40 15° N visible
19 Jun 10.6 02:53:32 41° SE 02:53:32 41° SE 03:06:36 10° E visible
19 Jun 10.3 04:54:31 32° SW 05:04:12 73° SSE 05:21:47 10° ENE visible
19 Jun 9.7 20:25:27 10° NNW 20:26:31 17° NNW 20:26:31 17° NNW visible
20 Jun 10.4 03:05:14 47° SE 03:05:14 47° SE 03:20:02 10° E visible
20 Jun 10.3 05:06:13 29° WSW 05:16:52 84° SSE 05:34:30 10° ENE visible
20 Jun 9.9 20:37:31 10° NW 20:38:23 16° NW 20:38:23 16° NW visible
21 Jun 11.8 01:15:59 11° ESE 01:15:59 11° ESE 01:16:20 10° ESE visible
21 Jun 10.3 03:16:58 54° SSE 03:16:58 54° SSE 03:33:23 10° E visible
21 Jun 10.3 05:17:57 26° WSW 05:29:27 85° NNW 05:47:01 10° NE visible
21 Jun 9.4 18:46:38 10° NNE 18:47:27 10° NE 18:48:18 10° NE visible
21 Jun 10.2 20:49:50 10° WNW 20:50:15 13° WNW 20:50:15 13° WNW visible
22 Jun 11.6 01:27:44 14° ESE 01:27:44 14° ESE 01:29:44 10° ESE visible
22 Jun 10.1 03:28:43 61° SSE 03:29:10 61° SSE 03:46:34 10° ENE visible
22 Jun 10.4 05:29:42 22° WSW 05:41:57 73° NW 05:59:19 10° NE visible
22 Jun 8.8 18:56:40 10° N 18:59:37 19° NE 19:01:08 16° ENE visible
23 Jun 11.5 01:39:30 18° ESE 01:39:30 18° ESE 01:43:14 10° E visible
23 Jun 9.9 03:40:29 67° S 03:41:52 70° SSE 03:59:35 10° ENE visible
23 Jun 10.5 05:41:28 18° WSW 05:54:26 61° NW 06:11:24 10° NE visible
23 Jun 8.1 19:08:11 10° NNW 19:11:49 31° NE 19:13:01 27° ENE visible
24 Jun 11.3 01:51:17 23° ESE 01:51:17 23° ESE 01:56:42 10° E visible
24 Jun 9.8 03:52:16 71° SSW 03:54:29 81° SSE 04:12:24 10° ENE visible
24 Jun 10.7 05:53:15 14° WSW 06:06:53 50° NW 06:23:16 10° NNE visible
24 Jun 7.4 19:20:09 10° NW 19:24:05 53° NE 19:24:53 47° ENE visible
25 Jun 11.1 02:03:04 28° E 02:03:04 28° E 02:10:07 10° E visible
25 Jun 9.8 04:04:03 67° WSW 04:07:02 87° NNW 04:24:58 10° NE visible
25 Jun 10.9 06:05:03 10° W 06:19:22 40° NW 06:34:54 10° NNE visible
25 Jun 6.9 19:32:25 10° WNW 19:36:27 90° NNE 19:36:45 79° ESE visible
26 Jun 10.9 02:14:52 34° E 02:14:52 34° E 02:23:24 10° E visible
26 Jun 9.8 04:15:51 59° W 04:19:34 75° NNW 04:37:20 10° NE visible
26 Jun 11.1 06:18:27 10° W 06:31:54 32° NW 06:46:15 10° NNE visible
26 Jun 7.5 19:44:57 10° WNW 19:48:36 55° SW 19:48:36 55° SW visible
27 Jun 10.7 02:26:40 40° E 02:26:40 40° E 02:36:29 10° ENE visible
27 Jun 10.0 04:27:39 49° W 04:32:05 62° NW 04:49:27 10° NE visible
27 Jun 8.5 19:57:41 10° W 20:00:26 32° SW 20:00:26 32° SW visible
